sat.trackr.live / text

‹ back to catalog

NUSANTARA TIGA (SATRIA)

NORAD 57045 · 2023-086A

PAYLOAD ACTIVE UNKNOWN

§ Identity

Operator
Country
INDO
Launch date
2023-06-18
Launch site
AFETR
Launch vehicle
Mass (kg)
RCS (m²)

Purposes: comms

External: N2YO · Heavens-Above · Gunter

§ Orbital elements

Epoch: 2026-09-19T19:29:38.642784Z

Period
1,436.12 min
Inclination
0.0499°
Eccentricity
0.0002717
Mean motion
1.00269928 rev/d
Perigee alt
35,775.7 km
Apogee alt
35,798.6 km
Semi-major
42,165.3 km
B*
0.0000e+0
RAAN
355.0294°
Arg perigee
292.9051°
Mean anomaly
149.1996°
Rev number
1,070

§ Raw data

NUSANTARA TIGA (SATRIA)1 57045U 23086A   26262.81225281 -.00000239  00000+0  00000+0 0  99902 57045   0.0499 355.0294 0002717 292.9051 149.1996  1.00269928 10702

JSON: /api/v1/satellites/57045 · /tle

For live sub-satellite position, see the globe view (requires WebGL).

§ Visibility from observer

Set your observer location to see the next 7 days of passes ≥ 10°. The values pass through the URL so the page stays shareable.

No JS? Fill the form by hand. The geolocation button needs JavaScript.